Condicions actuals
Parcialment ennuvolat



Pressió
1014.92 (hPa) - 29.97 (inHG)
Visibilitat:

10.0 (km) - 6.2 (miles)
Base de Núvols

914 (Mts) - 3000 (Feets)
   Temperatura
12  °C
Temperatura
9  °C
P.ros.
82  %
 Humitat
   Velocitat del Vent
2  km/h
1  kts
1  mph
0.4  m/s
   Vent Direcció
N
45°
E
90°
135°
S
180°
225°
O
270°
315°
Calma

Del   Nord
   Airport Data
LEBL
Josep Tarradellas Barcelona-El Prat Airport
Metar :LEBL 281730Z VRB01KT 9999 FEW030 12/09 Q1015 NOSIG
Mon 28th November 18:30 pm
   Raw Metar Info
Raw METAR is the most common format in the world for the transmission of observational weather data. It is highly standardized through the International Civil Aviation Organization (ICAO), which allows it to be understood throughout most of the world.
   API Info
Data Provided by
https://www.checkwx.com/weather/LEBL

Aviation Weather providing METAR, TAF, AIRMET, SIGMET and OUTLOOK Weather Reports
   © Info
CSS/SVG/PHP scripts were developed by weather34.com for use in the weather34 template © 2015-2022

Guide Info provided by Metar-Wikipedia